Date String (YYYY-MM-DD hh:mm:ss) UTC,Instrument flags,Ambient pressure (hPa),Sample flow (lpm),Bypass flow (lpm),Sample temperature (°C),Ambient temperature (°C),ASC tube jacket temperature (°C),LED temperature (°C),Box temperature (°C),Sample RH (%),Span deviation,Mass concentration (μg/m³),Mass concentration (μg/m³),Mass concentration (μg/m³)
DateTimeUTC,F1_M11,P_M11,Q1_M11,Q2_M11,T1_M11,T2_M11,T3_M11,T4_M11,T5_M11,U1_M11,ZSPAN_M11,X0_M11,X2_M11,X1_M11
2022-08-20 10:00:00,,0829.9,5.00,0.00,30.4,29.3,00.0,39.1,32.2,26.3,0000.0,0012.67,0006.57,0005.53
2022-08-20 10:01:00,,0829.8,5.00,0.00,30.4,29.3,00.0,39.1,32.2,26.3,0000.0,0012.73,0006.60,0005.53
2022-08-20 10:02:00,,0829.9,4.99,0.00,30.4,29.3,00.0,39.1,32.2,26.3,0000.0,0012.32,0006.59,0005.54
2022-08-20 10:03:00,,0829.9,5.00,0.00,30.4,29.3,00.0,39.1,32.3,26.3,0000.0,0012.31,0006.59,0005.55
2022-08-20 10:04:00,,0829.8,5.00,0.00,30.4,29.3,00.0,39.1,32.2,26.1,0000.0,0012.23,0006.60,0005.57
2022-08-20 10:05:00,,0829.9,5.00,0.00,30.4,29.3,00.0,39.1,32.2,26.0,0000.0,0012.54,0006.64,0005.56
2022-08-20 10:06:00,,0829.9,5.00,0.00,30.4,29.4,00.0,39.1,32.3,26.0,0000.0,0012.47,0006.68,0005.57
2022-08-20 10:07:00,,0829.9,5.00,0.00,30.4,29.4,00.0,39.2,32.3,26.0,0000.0,0012.69,0006.72,0005.58
2022-08-20 10:08:00,,0829.9,5.00,0.00,30.4,29.4,00.0,39.2,32.3,26.0,0000.0,0012.75,0006.73,0005.60
2022-08-20 10:09:00,,0829.9,5.00,0.00,30.4,29.4,00.0,39.2,32.3,26.0,0000.0,0012.65,0006.72,0005.60
2022-08-20 10:10:00,,0829.9,5.00,0.00,30.4,29.4,00.0,39.2,32.3,26.2,0000.0,0012.55,0006.70,0005.59
2022-08-20 10:11:00,,0829.9,5.01,0.00,30.5,29.4,00.0,39.2,32.3,26.1,0000.0,0013.28,0006.68,0005.60
2022-08-20 10:12:00,,0829.9,4.99,0.00,30.5,29.4,00.0,39.2,32.3,26.1,0000.0,0013.56,0006.65,0005.60
2022-08-20 10:13:00,,0829.9,5.00,0.00,30.5,29.4,00.0,39.2,32.3,26.1,0000.0,0014.16,0006.66,0005.59
2022-08-20 10:14:00,,0829.8,5.01,0.00,30.5,29.4,00.0,39.2,32.3,26.1,0000.0,0014.15,0006.65,0005.58
2022-08-20 10:15:00,,0829.9,5.01,0.00,30.5,29.4,00.0,39.3,32.4,26.1,0000.0,0014.30,0006.63,0005.57
2022-08-20 10:16:00,,0829.8,4.99,0.00,30.5,29.4,00.0,39.3,32.4,26.0,0000.0,0013.93,0006.58,0005.57
2022-08-20 10:17:00,,0829.8,5.01,0.00,30.5,29.4,00.0,39.3,32.4,26.0,0000.0,0013.67,0006.51,0005.56
2022-08-20 10:18:00,,0829.9,5.00,0.00,30.5,29.4,00.0,39.3,32.4,25.9,0000.0,0013.75,0006.48,0005.55
2022-08-20 10:19:00,,0829.8,5.01,0.00,30.5,29.5,00.0,39.3,32.4,25.9,0000.0,0014.20,0006.47,0005.54
2022-08-20 10:20:00,,0829.8,5.01,0.00,30.5,29.5,00.0,39.3,32.4,25.9,0000.0,0014.13,0006.46,0005.52
2022-08-20 10:21:00,,0829.8,5.00,0.00,30.5,29.5,00.0,39.3,32.4,25.8,0000.0,0014.25,0006.48,0005.52
2022-08-20 10:22:00,,0829.8,5.00,0.00,30.5,29.4,00.0,39.3,32.4,25.9,0000.0,0013.59,0006.47,0005.51
2022-08-20 10:23:00,,0829.7,5.00,0.00,30.5,28.7,00.0,39.2,32.2,25.9,0000.0,0013.69,0006.46,0005.51
2022-08-20 10:24:00,,0829.7,5.01,0.00,30.4,28.1,00.0,39.2,32.1,26.0,0000.0,0013.16,0006.47,0005.52
2022-08-20 10:25:00,,0829.7,4.99,0.00,30.3,27.9,00.0,39.2,31.9,26.4,0000.0,0012.87,0006.49,0005.52
2022-08-20 10:26:00,,0829.6,5.01,0.00,30.2,27.9,00.0,39.1,31.9,26.3,0000.0,0013.00,0006.51,0005.52
2022-08-20 10:27:00,,0829.7,4.99,0.00,30.2,28.0,00.0,39.1,31.9,26.2,0000.0,0013.15,0006.53,0005.50
2022-08-20 10:28:00,,0829.7,5.02,0.00,30.1,28.1,00.0,39.1,31.8,26.3,0000.0,0013.59,0006.53,0005.49
2022-08-20 10:29:00,,0829.7,4.99,0.00,30.1,28.2,00.0,39.0,31.8,26.5,0000.0,0013.02,0006.53,0005.49
2022-08-20 10:30:00,,0829.7,5.01,0.00,30.1,28.3,00.0,39.0,31.9,26.4,0000.0,0012.56,0006.52,0005.49
2022-08-20 10:31:00,,0829.7,5.00,0.00,30.1,28.4,00.0,39.0,31.9,26.4,0000.0,0012.22,0006.48,0005.48
2022-08-20 10:32:00,,0829.7,4.99,0.00,30.1,28.5,00.0,39.0,31.9,26.4,0000.0,0012.15,0006.47,0005.47
2022-08-20 10:33:00,,0829.7,5.00,0.00,30.1,28.6,00.0,39.0,31.9,26.4,0000.0,0012.21,0006.47,0005.46
2022-08-20 10:34:00,,0829.8,4.99,0.00,30.1,28.6,00.0,39.0,31.9,26.5,0000.0,0012.09,0006.43,0005.47
2022-08-20 10:35:00,,0829.8,5.00,0.00,30.1,28.7,00.0,39.0,31.9,26.5,0000.0,0012.00,0006.41,0005.47
2022-08-20 10:36:00,,0829.8,5.00,0.00,30.1,28.8,00.0,38.9,32.0,26.5,0000.0,0012.42,0006.42,0005.47
2022-08-20 10:37:00,,0829.8,5.00,0.00,30.1,28.8,00.0,38.9,32.0,26.5,0000.0,0012.23,0006.40,0005.46
2022-08-20 10:38:00,,0829.8,5.00,0.00,30.1,28.8,00.0,38.9,32.0,26.4,0000.0,0011.90,0006.35,0005.47
2022-08-20 10:39:00,,0829.8,4.99,0.00,30.1,28.9,00.0,39.0,32.0,26.4,0000.0,0011.56,0006.36,0005.48
2022-08-20 10:40:00,,0829.8,5.00,0.00,30.1,28.9,00.0,39.0,32.0,26.3,0000.0,0011.86,0006.37,0005.48
2022-08-20 10:41:00,,0829.8,5.00,0.00,30.1,29.0,00.0,39.0,32.0,26.3,0000.0,0011.98,0006.39,0005.48
2022-08-20 10:42:00,,0829.8,5.00,0.00,30.2,29.0,00.0,39.0,32.0,26.3,0000.0,0012.14,0006.44,0005.50
2022-08-20 10:43:00,,0829.8,4.99,0.00,30.2,29.0,00.0,39.0,32.0,26.3,0000.0,0011.95,0006.41,0005.51
2022-08-20 10:44:00,,0829.9,5.00,0.00,30.2,29.0,00.0,39.0,32.0,26.3,0000.0,0011.70,0006.35,0005.50
2022-08-20 10:45:00,,0829.8,5.00,0.00,30.2,29.1,00.0,39.0,32.0,26.3,0000.0,0011.35,0006.39,0005.52
2022-08-20 10:46:00,,0829.8,5.01,0.00,30.2,29.1,00.0,39.0,32.0,26.3,0000.0,0011.40,0006.41,0005.53
2022-08-20 10:47:00,,0829.9,5.00,0.00,30.2,29.1,00.0,39.0,32.1,26.3,0000.0,0011.58,0006.47,0005.54
2022-08-20 10:48:00,,0829.9,5.00,0.00,30.2,29.1,00.0,39.0,32.1,26.4,0000.0,0011.53,0006.51,0005.54
2022-08-20 10:49:00,,0829.9,5.00,0.00,30.2,29.1,00.0,39.0,32.1,26.4,0000.0,0011.44,0006.52,0005.56
2022-08-20 10:50:00,,0829.9,5.02,0.00,30.3,29.2,00.0,39.0,32.1,26.4,0000.0,0011.46,0006.57,0005.57
2022-08-20 10:51:00,,0829.9,5.00,0.00,30.3,29.2,00.0,39.0,32.1,26.5,0000.0,0011.26,0006.59,0005.59
2022-08-20 10:52:00,,0829.9,5.00,0.00,30.3,29.2,00.0,39.0,32.2,26.5,0000.0,0011.45,0006.62,0005.60
2022-08-20 10:53:00,,0829.8,5.00,0.00,30.3,29.2,00.0,39.0,32.1,26.6,0000.0,0011.69,0006.61,0005.60
2022-08-20 10:54:00,,0829.8,5.00,0.00,30.3,29.2,00.0,39.1,32.2,26.5,0000.0,0011.80,0006.63,0005.61
2022-08-20 10:55:00,,0829.8,5.01,0.00,30.3,29.2,00.0,39.1,32.2,26.3,0000.0,0011.98,0006.69,0005.63
2022-08-20 10:56:00,,0829.8,5.00,0.00,30.3,29.2,00.0,39.1,32.2,26.2,0000.0,0012.16,0006.71,0005.64
2022-08-20 10:57:00,,0829.8,5.00,0.00,30.3,29.3,00.0,39.1,32.2,26.2,0000.0,0012.49,0006.72,0005.62
2022-08-20 10:58:00,,0829.9,5.00,0.00,30.4,29.3,00.0,39.1,32.2,26.1,0000.0,0012.68,0006.66,0005.62
2022-08-20 10:59:00,,0829.9,5.00,0.00,30.4,29.3,00.0,39.1,32.2,26.3,0000.0,0012.44,0006.62,0005.63
